This is the latest recevied weather packets stored in our database for station/object OK1HOL-13. If no packets are shown the sender has not sent any weather packets the latest 10 day(s).
| Time | Temp. | Humidity | Pressure | Rain* | Wind** | Luminosity | Snow |
|---|---|---|---|---|---|---|---|
| 1777573284 | 14.44° C | 32% | 1028.7 hPa | - | - | 0 W/m² | - |
| 1777572684 | 14.44° C | 31% | 1028.7 hPa | - | - | 2 W/m² | - |
| 1777572085 | 14.44° C | 30% | 1028.6 hPa | - | - | 4 W/m² | - |
| 1777571485 | 15° C | 30% | 1028.5 hPa | - | - | 5 W/m² | - |
| 1777570884 | 15° C | 29% | 1028.5 hPa | - | - | 8 W/m² | - |
| 1777570284 | 15° C | 28% | 1028.4 hPa | - | - | 9 W/m² | - |
| 1777569685 | 15° C | 28% | 1028.5 hPa | - | - | 11 W/m² | - |
| 1777569084 | 15° C | 28% | 1028.3 hPa | - | - | 13 W/m² | - |
| 1777568484 | 15.56° C | 28% | 1028.3 hPa | - | - | 14 W/m² | - |
| 1777567884 | 15.56° C | 28% | 1028.4 hPa | - | - | 16 W/m² | - |
| 1777567285 | 16.11° C | 27% | 1028.4 hPa | - | - | 18 W/m² | - |
| 1777566685 | 16.67° C | 25% | 1028.3 hPa | - | - | 19 W/m² | - |
| 1777566085 | 17.22° C | 24% | 1028.3 hPa | - | - | 71 W/m² | - |
| 1777565484 | 17.22° C | 24% | 1028.4 hPa | - | - | 47 W/m² | - |
| 1777564885 | 17.78° C | 23% | 1028.5 hPa | - | - | 34 W/m² | - |
| 1777564285 | 17.78° C | 23% | 1028.5 hPa | - | - | 109 W/m² | - |
| 1777563684 | 17.22° C | 23% | 1028.5 hPa | - | - | 144 W/m² | - |
| 1777563084 | 18.33° C | 21% | 1028.5 hPa | - | - | 168 W/m² | - |
| 1777562484 | 17.78° C | 22% | 1028.6 hPa | - | - | 180 W/m² | - |
| 1777561888 | 17.22° C | 22% | 1028.7 hPa | - | - | 0 W/m² | - |
| 1777561283 | 17.78° C | 21% | 1028.7 hPa | - | - | 237 W/m² | - |
| 1777560683 | 17.78° C | 21% | 1028.9 hPa | - | - | 236 W/m² | - |
| 1777560083 | 16.67° C | 22% | 1029 hPa | - | - | 297 W/m² | - |
| 1777559483 | 17.22° C | 21% | 1029.1 hPa | - | - | 294 W/m² | - |
| 1777558883 | 17.78° C | 21% | 1029.2 hPa | - | - | 321 W/m² | - |
* Rain since midnight (hover to see other rain measurements)
** Current wind speed in m/s (hover to see current wind gust speed)